Location: Freemans Gardens
(41.6414°N, 83.6077°W)
Time: 02:36:31
(UTC+00:00)

SMAP - Pass Details

Date: 29 October 2020
Orbit: 681 x 683 km, 98.1° (Epoch: 26 November)

Event Time Altitude Azimuth Distance (km) Brightness Sun altitude
Rises 22:54:51 0° 164° (SSE) 3,031 6.4 -4.9°
Reaches altitude 10° 22:57:05 10° 163° (SSE) 2,120 5.6 -5.3°
Maximum altitude 23:01:43 85° 77° (ENE) 692 3.1 -6.2°
Drops below altitude 10° 23:06:24 10° 348° (NNW) 2,135 5.6 -7.0°
Sets 23:08:39 0° 348° (NNW) 3,054 6.4 -7.4°
